#timestamp,LO_Frequency,Hit,StdDev 
1616133615.3,286047012.1,P
1616133635.1,286047013.9,Y
1616133655.9,286047004.5,P
1616133675.7,286047010.1,P
1616133695.5,286047013.7,P
1616133715.4,286047017.7,Y
1616133735.2,286047011.1,P
1616133755.0,286047012.0,P
1616133755.9,286047012.0,P
1616133775.8,286047001.8,N
1616133795.6,286047000.8,N
1616133815.5,286046999.6,N
1616133835.3,286046994.7,N
1616133855.1,286046993.7,N
1616133875.9,286046999.1,N
1616133895.7,286046997.6,N
1616133915.5,286046996.5,N
1616133935.4,286046990.5,N
1616133955.2,286046989.3,N
1616133975.1,286046991.0,N
1616133976.0,286046991.0,N
1616133995.8,286046991.3,N
1616134015.6,286046989.8,N
1616134035.5,286046984.5,N
1616134055.3,286046986.3,N
1616134075.1,286046987.3,N
1616134095.9,286046987.0,N
1616134115.7,286046986.8,N
1616134135.6,286046989.6,N
1616134155.4,286046989.5,N
1616134175.2,286046987.4,N
1616134195.1,286046981.4,N
1616134196.0,286046981.4,N
1616134215.8,286046982.5,N
1616134235.6,286046986.0,N
1616134255.5,286046988.1,N
1616134275.3,286046986.0,N
1616134295.2,286046988.6,N
1616134315.9,286046982.7,N
1616134335.7,286046975.9,Y
1616134355.6,286046988.8,P
1616134375.4,286046993.6,P
1616134395.2,286046995.6,N
1616134415.1,286046994.5,N
1616134416.0,286046994.5,N
1616134435.8,286046992.9,N
1616134455.7,286046987.6,Y
1616134475.5,286046993.6,P
1616134495.3,286046995.6,P
1616134515.2,286047003.7,P
1616134535.0,286047007.2,N
1616134535.9,286047007.2,N
1616134555.7,286047002.9,N
1616134575.6,286047002.5,N
1616134595.4,286047008.6,N
1616134615.3,286047003.9,N
1616134635.1,286047004.8,N
1616134636.0,286047004.8,N
1616134655.8,286047009.2,N
1616134675.7,286047005.9,N
1616134695.5,286047005.7,N
1616134715.4,286047005.6,N
1616134735.2,286047004.2,N
1616134755.1,286047002.6,N
1616134756.0,286047002.6,N
1616134775.8,286046997.3,N
1616134795.7,286046994.9,N
1616134815.5,286046995.0,N
1616134835.3,286046994.9,N
1616134855.2,286046998.7,N
1616134875.0,286046998.8,N
1616134875.9,286046998.8,N
1616134895.8,286047000.5,N
1616134915.6,286046995.2,N
1616134935.4,286046994.3,N
1616134955.3,286046995.7,N
1616134975.1,286046998.8,N
1616134995.9,286047004.7,N
1616135015.7,286047002.5,N
1616135035.5,286047001.5,N
1616135055.4,286047002.1,N
1616135075.2,286047009.0,N
1616135095.0,286047003.6,N
1616135096.0,286047003.6,N
1616135115.8,286046995.8,N
1616135135.6,286046993.0,N
1616135155.5,286046996.1,N
1616135175.3,286046999.8,N
1616135195.1,286046995.6,N
1616135215.9,286046994.0,N
1616135235.7,286046998.4,N
1616135255.6,286046997.6,N
1616135275.4,286046993.8,N
1616135295.2,286046995.1,N
1616135315.1,286046999.7,N
1616135316.0,286046999.7,N
1616135335.8,286047001.6,N
1616135355.6,286047002.4,N
1616135375.5,286046993.7,N
1616135395.3,286046991.1,N
1616135415.2,286046980.7,Y
1616135435.9,286046988.2,P
1616135455.7,286046990.6,N
1616135475.6,286046987.2,N
1616135495.4,286046981.3,Y
1616135515.2,286046994.6,P
1616135535.1,286046997.4,N
1616135536.0,286046997.4,N
1616135555.8,286046995.9,N
1616135575.7,286046990.7,Y
1616135595.5,286046995.8,P
1616135615.3,286046991.7,P
1616135635.2,286046990.9,P
1616135655.0,286046996.3,N
1616135655.9,286046996.3,N
1616135675.8,286046998.3,N
1616135695.6,286046999.0,N
1616135715.4,286046988.7,Y
1616135735.3,286047005.5,P
1616135755.1,286047012.1,N
1616135775.8,286047000.0,N
1616135795.7,286046995.4,N
1616135815.5,286046999.6,N
1616135835.4,286046993.4,N
1616135855.2,286046993.6,N
1616135875.0,286046997.4,N
1616135875.9,286046997.4,N
1616135895.8,286046998.1,N
1616135915.6,286047001.2,N
1616135935.4,286046999.0,N
1616135955.3,286046993.3,N
1616135975.1,286046996.8,N
1616135995.9,286047005.4,N
1616136015.7,286047003.2,N
1616136035.5,286047005.0,N
1616136055.4,286047011.2,N
1616136075.2,286047005.4,N
1616136095.0,286046990.1,N
1616136095.9,286046990.1,N
1616136115.8,286046996.4,N
1616136135.6,286046994.9,N
1616136155.5,286047001.2,N
1616136175.3,286046997.1,N
1616136195.1,286046995.2,N
1616136215.9,286046999.0,N
1616136235.7,286046999.4,N
1616136255.5,286047001.6,N
1616136275.4,286047006.4,N
1616136295.2,286047003.6,N
1616136315.1,286047005.8,N
1616136316.0,286047005.8,N
1616136335.8,286047013.1,N
1616136355.6,286047016.0,N
1616136375.5,286047018.4,N
1616136395.3,286047019.8,N
1616136415.2,286047013.7,N
1616136435.9,286047006.1,N
1616136455.7,286047012.0,N
1616136475.6,286047007.3,N
1616136495.4,286047006.4,N
1616136515.2,286047007.1,N
1616136535.1,286047007.0,N
1616136536.0,286047007.0,N
1616136555.8,286047004.9,N
1616136575.7,286047003.6,N
1616136595.5,286047002.2,N
1616136615.3,286047005.2,N
1616136635.2,286047008.2,N
1616136655.9,286047002.9,N
1616136675.7,286047008.9,N
1616136695.6,286047009.0,N
1616136715.4,286047003.7,N
1616136735.2,286047004.7,N
1616136755.1,286047010.3,N
1616136756.0,286047010.3,N
1616136775.8,286047012.4,N
1616136795.7,286047011.0,N
1616136815.5,286047019.9,Y
1616136835.3,286047017.0,P
1616136855.2,286047016.5,P
1616136875.0,286047013.6,P
1616136875.9,286047013.6,Y
1616136895.8,286047002.8,P
1616136915.6,286046999.5,N
1616136935.4,286046998.7,N
1616136955.3,286046998.3,N
1616136975.1,286046994.9,N
1616136995.8,286046998.4,N
1616137015.7,286047001.2,N
1616137035.5,286046999.1,N
1616137055.4,286047003.2,N
1616137075.2,286047004.6,N
1616137095.0,286047010.5,N
1616137095.9,286047010.5,N
1616137115.8,286047009.6,N
1616137135.6,286047010.2,N
1616137155.4,286047009.9,N
1616137175.3,286047007.9,N
1616137195.1,286047008.6,N
